| time (UTC) | temp C | wind direction | speed KPH | gust KPH | rain 1hr cm | rain 24hr cm | rain mn cm | humidity % | barometer mb |
| 20260509212910 | 18 | 167 | 6.4 | 17.7 | 0.00 | 1.80 | 1.07 | 59 | 1002.5 |
| 20260509212410 | 19 | 156 | 6.4 | 14.5 | 0.00 | 1.80 | 1.07 | 58 | 1002.6 |
| 20260509211929 | 19 | 161 | 4.8 | 11.3 | 0.00 | 1.80 | 1.07 | 60 | 1002.5 |
| 20260509211840 | 19 | 161 | 4.8 | 11.3 | 0.00 | 1.80 | 1.07 | 60 | 1002.5 |
| 20260509211310 | 19 | 163 | 6.4 | 19.3 | 0.00 | 1.80 | 1.07 | 58 | 1002.6 |
| 20260509210740 | 18 | 168 | 6.4 | 19.3 | 0.00 | 1.80 | 1.07 | 56 | 1002.7 |
| 20260509210240 | 19 | 176 | 4.8 | 12.9 | 0.00 | 1.80 | 1.07 | 59 | 1002.9 |
| 20260509205741 | 18 | 159 | 6.4 | 16.1 | 0.00 | 1.80 | 1.07 | 61 | 1003.0 |
| 20260509205211 | 18 | 169 | 8.0 | 17.7 | 0.00 | 1.83 | 1.07 | 60 | 1003.2 |
| 20260509204710 | 18 | 170 | 6.4 | 17.7 | 0.00 | 1.83 | 1.07 | 63 | 1003.3 |
| 20260509204253 | 18 | 175 | 6.4 | 20.9 | 0.00 | 1.83 | 1.07 | 63 | 1003.3 |
| 20260509204210 | 18 | 175 | 6.4 | 20.9 | 0.00 | 1.83 | 1.07 | 63 | 1003.3 |
| 20260509203640 | 18 | 174 | 6.4 | 20.9 | 0.00 | 1.83 | 1.07 | 63 | 1003.3 |
| 20260509203112 | 18 | 176 | 8.0 | 17.7 | 0.00 | 1.83 | 1.07 | 64 | 1003.3 |
| 20260509202610 | 18 | 179 | 8.0 | 17.7 | 0.00 | 1.83 | 1.07 | 65 | 1003.3 |
| 20260509202110 | 18 | 172 | 8.0 | 22.5 | 0.00 | 1.83 | 1.07 | 64 | 1003.3 |
| 20260509201610 | 18 | 177 | 6.4 | 22.5 | 0.00 | 1.83 | 1.07 | 61 | 1003.6 |
| 20260509201110 | 18 | 172 | 4.8 | 19.3 | 0.00 | 1.83 | 1.07 | 63 | 1003.6 |
| 20260509200610 | 18 | 157 | 6.4 | 24.1 | 0.00 | 1.83 | 1.07 | 64 | 1003.6 |
| 20260509200110 | 18 | 169 | 6.4 | 24.1 | 0.00 | 1.83 | 1.07 | 62 | 1003.6 |
| 20260509195540 | 17 | 177 | 6.4 | 19.3 | 0.00 | 1.83 | 1.07 | 67 | 1003.8 |
| 20260509195010 | 17 | 162 | 6.4 | 19.3 | 0.00 | 1.85 | 1.07 | 66 | 1003.8 |
| 20260509194443 | 17 | 188 | 3.2 | 12.9 | 0.00 | 1.93 | 1.07 | 67 | 1003.7 |
| 20260509192840 | 16 | 160 | 9.7 | 22.5 | 0.00 | 1.93 | 1.07 | 70 | 1004.0 |
| 20260509192310 | 17 | 171 | 8.0 | 22.5 | 0.00 | 1.93 | 1.07 | 69 | 1003.9 |
| 20260509191740 | 17 | 168 | 8.0 | 19.3 | 0.00 | 1.93 | 1.07 | 73 | 1004.1 |
| 20260509191240 | 16 | 173 | 6.4 | 19.3 | 0.00 | 1.93 | 1.07 | 73 | 1004.3 |
| 20260509190710 | 16 | 178 | 6.4 | 19.3 | 0.00 | 1.93 | 1.07 | 74 | 1004.3 |
| 20260509185110 | 16 | 162 | 6.4 | 16.1 | 0.00 | 1.93 | 1.07 | 77 | 1004.3 |
| 20260509184609 | 15 | 158 | 6.4 | 16.1 | 0.00 | 1.93 | 1.07 | 79 | 1004.3 |
| 20260509184110 | 15 | 166 | 4.8 | 12.9 | 0.00 | 1.93 | 1.07 | 78 | 1004.4 |
| 20260509183540 | 15 | 192 | 4.8 | 16.1 | 0.00 | 1.93 | 1.07 | 80 | 1004.4 |
| 20260509182439 | 15 | 163 | 4.8 | 12.9 | 0.00 | 1.93 | 1.07 | 79 | 1004.3 |
| 20260509181939 | 15 | 175 | 4.8 | 12.9 | 0.00 | 1.93 | 1.07 | 81 | 1004.4 |
| 20260509181410 | 15 | 186 | 4.8 | 12.9 | 0.00 | 1.93 | 1.07 | 81 | 1004.4 |
| 20260509180909 | 15 | 174 | 4.8 | 24.1 | 0.00 | 1.93 | 1.07 | 82 | 1004.4 |
| 20260509180409 | 15 | 174 | 4.8 | 24.1 | 0.00 | 1.93 | 1.07 | 83 | 1004.6 |
| 20260509175839 | 14 | 181 | 4.8 | 16.1 | 0.00 | 1.93 | 1.07 | 86 | 1004.5 |
| 20260509175310 | 14 | 172 | 6.4 | 16.1 | 0.00 | 1.93 | 1.07 | 85 | 1004.5 |
| 20260509174809 | 14 | 169 | 6.4 | 14.5 | 0.00 | 1.93 | 1.07 | 88 | 1004.5 |
| 20260509174239 | 13 | 184 | 6.4 | 14.5 | 0.00 | 1.93 | 1.07 | 88 | 1004.6 |
| 20260509173711 | 13 | 183 | 3.2 | 11.3 | 0.00 | 1.93 | 1.07 | 90 | 1004.8 |
| 20260509173209 | 13 | 188 | 4.8 | 11.3 | 0.00 | 1.93 | 1.07 | 91 | 1004.8 |
| 20260509172640 | 12 | 193 | 3.2 | 11.3 | 0.00 | 1.93 | 1.07 | 91 | 1004.9 |
| 20260509172109 | 12 | 182 | 4.8 | 12.9 | 0.00 | 1.93 | 1.07 | 91 | 1005.0 |
| 20260509171539 | 12 | 172 | 6.4 | 14.5 | 0.00 | 1.93 | 1.07 | 93 | 1005.0 |
| 20260509171009 | 12 | 170 | 6.4 | 14.5 | 0.03 | 1.93 | 1.07 | 93 | 1005.1 |
| 20260509170510 | 12 | 166 | 4.8 | 14.5 | 0.03 | 1.93 | 1.07 | 94 | 1005.1 |
| 20260509165939 | 12 | 191 | 6.4 | 14.5 | 0.03 | 1.93 | 1.07 | 94 | 1005.2 |
| 20260509165410 | 12 | 197 | 4.8 | 14.5 | 0.03 | 1.93 | 1.07 | 93 | 1005.2 |
| 20260509164911 | 12 | 185 | 3.2 | 12.9 | 0.03 | 1.93 | 1.07 | 94 | 1005.1 |
| 20260509164409 | 11 | 178 | 3.2 | 12.9 | 0.03 | 1.93 | 1.07 | 94 | 1005.2 |
| 20260509163310 | 11 | 170 | 3.2 | 11.3 | 0.03 | 1.93 | 1.07 | 94 | 1005.1 |
| 20260509162810 | 11 | 164 | 1.6 | 8.0 | 0.03 | 1.93 | 1.07 | 95 | 1005.1 |
| 20260509162310 | 11 | 158 | 1.6 | 6.4 | 0.03 | 1.93 | 1.07 | 95 | 1004.9 |
| 20260509161741 | 11 | 150 | 1.6 | 6.4 | 0.03 | 1.93 | 1.07 | 95 | 1005.1 |
| 20260509161242 | 11 | 167 | 1.6 | 6.4 | 0.05 | 1.93 | 1.07 | 94 | 1005.0 |
| 20260509161209 | 11 | 167 | 1.6 | 6.4 | 0.05 | 1.93 | 1.07 | 94 | 1005.0 |
| 20260509160639 | 10 | 179 | 1.6 | 8.0 | 0.03 | 1.91 | 1.04 | 95 | 1004.9 |
| 20260509160139 | 10 | 164 | 3.2 | 8.0 | 0.03 | 1.91 | 1.04 | 94 | 1005.0 |
| 20260509155609 | 10 | 175 | 1.6 | 6.4 | 0.03 | 1.91 | 1.04 | 94 | 1004.9 |
| 20260509155110 | 10 | 177 | 3.2 | 9.7 | 0.03 | 1.91 | 1.04 | 94 | 1004.9 |
| 20260509154610 | 10 | 171 | 1.6 | 9.7 | 0.03 | 1.91 | 1.04 | 94 | 1004.9 |
| 20260509154039 | 10 | 156 | 0.0 | 3.2 | 0.03 | 1.91 | 1.04 | 95 | 1004.9 |
| 20260509153541 | 10 | 155 | 1.6 | 4.8 | 0.03 | 1.91 | 1.04 | 94 | 1004.9 |
| 20260509153039 | 10 | 172 | 1.6 | 4.8 | 0.03 | 1.91 | 1.04 | 94 | 1004.7 |
| 20260509152509 | 10 | 174 | 1.6 | 4.8 | 0.03 | 1.91 | 1.04 | 94 | 1004.8 |
| 20260509151439 | 10 | 168 | 1.6 | 6.4 | 0.03 | 1.91 | 1.04 | 94 | 1004.8 |
| 20260509151007 | 10 | 161 | 1.6 | 4.8 | 0.00 | 1.88 | 1.02 | 94 | 1004.7 |
| 20260509150912 | 10 | 161 | 1.6 | 4.8 | 0.00 | 1.88 | 1.02 | 94 | 1004.7 |
| 20260509150910 | 10 | 161 | 1.6 | 4.8 | 0.00 | 1.88 | 1.02 | 94 | 1004.7 |
| 20260509150410 | 10 | 153 | 1.6 | 4.8 | 0.00 | 1.88 | 1.02 | 94 | 1004.9 |
| 20260509145909 | 10 | 149 | 0.0 | 3.2 | 0.03 | 1.88 | 1.02 | 94 | 1004.9 |
| 20260509145412 | 10 | 145 | 1.6 | 4.8 | 0.03 | 1.88 | 1.02 | 94 | 1004.9 |
| 20260509145409 | 10 | 145 | 1.6 | 4.8 | 0.03 | 1.88 | 1.02 | 94 | 1004.9 |
| 20260509144839 | 10 | 149 | 1.6 | 4.8 | 0.03 | 1.88 | 1.02 | 94 | 1004.8 |
| 20260509144310 | 10 | 172 | 1.6 | 6.4 | 0.03 | 1.88 | 1.02 | 94 | 1004.8 |
| 20260509143812 | 10 | 172 | 1.6 | 6.4 | 0.03 | 1.88 | 1.02 | 94 | 1004.8 |
| 20260509143809 | 10 | 172 | 1.6 | 6.4 | 0.03 | 1.88 | 1.02 | 94 | 1004.8 |
| 20260509143239 | 10 | 169 | 3.2 | 8.0 | 0.03 | 1.88 | 1.02 | 94 | 1004.9 |
| 20260509142712 | 10 | 168 | 3.2 | 8.0 | 0.03 | 1.88 | 1.02 | 94 | 1004.8 |
| 20260509142709 | 10 | 168 | 3.2 | 8.0 | 0.03 | 1.88 | 1.02 | 94 | 1004.8 |
| 20260509142140 | 10 | 153 | 3.2 | 8.0 | 0.05 | 1.88 | 1.02 | 94 | 1004.7 |
| 20260509141609 | 9 | 153 | 1.6 | 4.8 | 0.05 | 1.88 | 1.02 | 94 | 1004.7 |
| 20260509141109 | 9 | 139 | 3.2 | 6.4 | 0.05 | 1.88 | 1.02 | 94 | 1004.8 |
| 20260509140539 | 9 | 146 | 3.2 | 8.0 | 0.05 | 1.88 | 1.02 | 94 | 1004.8 |
| 20260509140009 | 9 | 160 | 1.6 | 8.0 | 0.03 | 1.85 | 0.99 | 94 | 1004.9 |
| 20260509135439 | 9 | 157 | 1.6 | 4.8 | 0.03 | 1.85 | 0.99 | 94 | 1005.0 |
| 20260509134910 | 9 | 152 | 1.6 | 4.8 | 0.03 | 1.85 | 0.99 | 94 | 1005.0 |
| 20260509134339 | 9 | 175 | 1.6 | 4.8 | 0.03 | 1.85 | 0.99 | 94 | 1005.0 |
| 20260509133920 | 9 | 179 | 1.6 | 4.8 | 0.03 | 1.85 | 0.99 | 94 | 1005.1 |
| 20260509133843 | 9 | 179 | 1.6 | 4.8 | 0.03 | 1.85 | 0.99 | 94 | 1005.1 |
| 20260509133841 | 9 | 179 | 1.6 | 4.8 | 0.03 | 1.85 | 0.99 | 94 | 1005.1 |
| 20260509133310 | 9 | 162 | 1.6 | 6.4 | 0.03 | 1.85 | 0.99 | 94 | 1005.0 |
| 20260509132810 | 8 | 158 | 3.2 | 9.7 | 0.03 | 1.85 | 0.99 | 94 | 1005.0 |
| 20260509132504 | 8 | 170 | 3.2 | 9.7 | 0.00 | 1.83 | 0.97 | 94 | 1005.0 |
| 20260509132243 | 8 | 170 | 3.2 | 9.7 | 0.00 | 1.83 | 0.97 | 94 | 1005.0 |
| 20260509132240 | 8 | 170 | 3.2 | 9.7 | 0.00 | 1.83 | 0.97 | 94 | 1005.0 |
| 20260509131711 | 8 | 174 | 3.2 | 9.7 | 0.00 | 1.83 | 0.97 | 94 | 1005.0 |
| 20260509130709 | 8 | 171 | 3.2 | 6.4 | 0.00 | 1.83 | 0.97 | 94 | 1004.9 |
| 20260509130139 | 8 | 167 | 3.2 | 8.0 | 0.03 | 1.83 | 0.97 | 94 | 1004.9 |
| 20260509125643 | 8 | 158 | 1.6 | 8.0 | 0.03 | 1.83 | 0.97 | 94 | 1004.9 |
| 20260509125140 | 8 | 180 | 0.0 | 3.2 | 0.05 | 1.83 | 0.97 | 94 | 1005.1 |
| 20260509124643 | 8 | 158 | 1.6 | 4.8 | 0.05 | 1.83 | 0.97 | 94 | 1005.1 |
| 20260509124109 | 8 | 156 | 1.6 | 6.4 | 0.05 | 1.83 | 0.97 | 94 | 1005.1 |
| 20260509123009 | 8 | 161 | 1.6 | 4.8 | 0.05 | 1.83 | 0.97 | 94 | 1005.2 |
| 20260509122440 | 8 | 165 | 1.6 | 8.0 | 0.05 | 1.83 | 0.97 | 94 | 1005.2 |
| 20260509121939 | 8 | 177 | 1.6 | 8.0 | 0.05 | 1.83 | 0.97 | 94 | 1005.3 |
| 20260509121410 | 8 | 153 | 1.6 | 4.8 | 0.05 | 1.83 | 0.97 | 94 | 1005.3 |
| 20260509121014 | 8 | 159 | 1.6 | 11.3 | 0.05 | 1.83 | 0.97 | 94 | 1005.3 |
| 20260509120840 | 8 | 159 | 1.6 | 11.3 | 0.05 | 1.83 | 0.97 | 94 | 1005.3 |
| 20260509120339 | 8 | 154 | 3.2 | 11.3 | 0.03 | 1.80 | 0.94 | 94 | 1005.3 |
| 20260509115810 | 8 | 154 | 3.2 | 12.9 | 0.03 | 1.80 | 0.94 | 94 | 1005.2 |
| 20260509115309 | 8 | 167 | 1.6 | 12.9 | 0.03 | 1.78 | 0.91 | 94 | 1005.3 |
| 20260509114739 | 8 | 139 | 1.6 | 8.0 | 0.03 | 1.78 | 0.91 | 94 | 1005.2 |
| 20260509114507 | 8 | 145 | 1.6 | 8.0 | 0.03 | 1.78 | 0.91 | 94 | 1005.2 |
| 20260509114209 | 8 | 145 | 1.6 | 8.0 | 0.03 | 1.78 | 0.91 | 94 | 1005.2 |
| 20260509113930 | 8 | 160 | 1.6 | 4.8 | 0.03 | 1.78 | 0.91 | 94 | 1005.1 |
| 20260509113709 | 8 | 160 | 1.6 | 4.8 | 0.03 | 1.78 | 0.91 | 94 | 1005.1 |
| 20260509113139 | 8 | 161 | 1.6 | 1.6 | 0.03 | 1.78 | 0.91 | 94 | 1005.1 |
| 20260509112609 | 8 | 158 | 1.6 | 4.8 | 0.03 | 1.78 | 0.91 | 94 | 1005.1 |
| 20260509112039 | 8 | 159 | 1.6 | 6.4 | 0.03 | 1.78 | 0.91 | 94 | 1005.1 |
| 20260509111509 | 8 | 174 | 1.6 | 6.4 | 0.05 | 1.78 | 0.91 | 94 | 1005.1 |
| 20260509111009 | 8 | 173 | 1.6 | 4.8 | 0.08 | 1.78 | 0.91 | 94 | 1005.2 |
| 20260509110439 | 8 | 158 | 1.6 | 4.8 | 0.10 | 1.78 | 0.91 | 94 | 1005.2 |
| 20260509105909 | 8 | 179 | 1.6 | 6.4 | 0.10 | 1.78 | 0.91 | 94 | 1005.2 |
| 20260509105513 | 8 | 171 | 1.6 | 6.4 | 0.10 | 1.75 | 0.89 | 94 | 1005.1 |
| 20260509105339 | 8 | 171 | 1.6 | 6.4 | 0.10 | 1.75 | 0.89 | 94 | 1005.1 |
| 20260509104839 | 8 | 150 | 1.6 | 4.8 | 0.13 | 1.75 | 0.89 | 94 | 1005.2 |
| 20260509103809 | 8 | 202 | 1.6 | 3.2 | 0.15 | 1.75 | 0.89 | 94 | 1005.2 |
| 20260509103011 | 8 | 185 | 1.6 | 6.4 | 0.18 | 1.75 | 0.89 | 94 | 1005.2 |
| 20260509102739 | 8 | 185 | 1.6 | 6.4 | 0.18 | 1.75 | 0.89 | 94 | 1005.2 |
| 20260509102506 | 8 | 188 | 1.6 | 6.4 | 0.20 | 1.75 | 0.89 | 94 | 1005.2 |
| 20260509102210 | 8 | 188 | 1.6 | 6.4 | 0.20 | 1.75 | 0.89 | 94 | 1005.2 |
| 20260509101640 | 8 | 160 | 1.6 | 4.8 | 0.18 | 1.73 | 0.86 | 94 | 1005.2 |
| 20260509101139 | 8 | 159 | 1.6 | 4.8 | 0.15 | 1.70 | 0.84 | 94 | 1005.1 |
| 20260509100609 | 8 | 155 | 1.6 | 6.4 | 0.15 | 1.68 | 0.81 | 94 | 1005.2 |
| 20260509100039 | 8 | 148 | 1.6 | 6.4 | 0.18 | 1.68 | 0.81 | 94 | 1005.1 |
| 20260509095510 | 8 | 156 | 1.6 | 9.7 | 0.15 | 1.65 | 0.79 | 94 | 1005.1 |
| 20260509095009 | 8 | 153 | 3.2 | 9.7 | 0.18 | 1.65 | 0.79 | 94 | 1005.2 |
| 20260509094439 | 8 | 147 | 3.2 | 11.3 | 0.18 | 1.63 | 0.76 | 94 | 1005.2 |
| 20260509093909 | 8 | 150 | 3.2 | 6.4 | 0.18 | 1.60 | 0.74 | 94 | 1005.2 |
| 20260509093339 | 8 | 156 | 3.2 | 6.4 | 0.23 | 1.60 | 0.74 | 94 | 1005.4 |
| 20260509092839 | 8 | 159 | 3.2 | 8.0 | 0.23 | 1.57 | 0.71 | 94 | 1005.5 |
| 20260509092509 | 8 | 166 | 1.6 | 8.0 | 0.25 | 1.57 | 0.71 | 94 | 1005.5 |
| 20260509092339 | 8 | 166 | 1.6 | 8.0 | 0.25 | 1.57 | 0.71 | 94 | 1005.5 |
| 20260509091839 | 8 | 165 | 1.6 | 8.0 | 0.25 | 1.55 | 0.69 | 94 | 1005.5 |
| 20260509091311 | 8 | 158 | 3.2 | 8.0 | 0.28 | 1.55 | 0.69 | 94 | 1005.5 |
| 20260509091015 | 8 | 160 | 3.2 | 9.7 | 0.28 | 1.52 | 0.66 | 94 | 1005.5 |
| 20260509090739 | 8 | 160 | 3.2 | 9.7 | 0.28 | 1.52 | 0.66 | 94 | 1005.5 |
| 20260509090508 | 8 | 177 | 3.2 | 9.7 | 0.28 | 1.52 | 0.66 | 94 | 1005.5 |
| 20260509090239 | 8 | 177 | 3.2 | 9.7 | 0.28 | 1.52 | 0.66 | 94 | 1005.5 |
| 20260509085739 | 8 | 187 | 3.2 | 9.7 | 0.25 | 1.50 | 0.64 | 94 | 1005.5 |
| 20260509085209 | 8 | 160 | 3.2 | 9.7 | 0.25 | 1.47 | 0.61 | 94 | 1005.6 |
| 20260509084709 | 8 | 148 | 3.2 | 9.7 | 0.25 | 1.47 | 0.61 | 94 | 1005.6 |
| 20260509084209 | 8 | 148 | 3.2 | 9.7 | 0.25 | 1.45 | 0.58 | 94 | 1005.7 |
| 20260509083709 | 8 | 158 | 3.2 | 9.7 | 0.20 | 1.40 | 0.53 | 94 | 1005.8 |
| 20260509083139 | 8 | 167 | 4.8 | 9.7 | 0.20 | 1.37 | 0.51 | 94 | 1005.7 |
| 20260509082609 | 8 | 161 | 3.2 | 8.0 | 0.15 | 1.35 | 0.46 | 94 | 1005.6 |
| 20260509082109 | 8 | 152 | 3.2 | 8.0 | 0.13 | 1.32 | 0.43 | 94 | 1005.7 |
| 20260509081609 | 8 | 156 | 3.2 | 8.0 | 0.13 | 1.30 | 0.41 | 94 | 1005.8 |
| 20260509081041 | 8 | 148 | 3.2 | 8.0 | 0.10 | 1.27 | 0.38 | 94 | 1005.7 |
| 20260509080539 | 8 | 143 | 3.2 | 8.0 | 0.10 | 1.27 | 0.38 | 94 | 1005.7 |
| 20260509080012 | 8 | 142 | 3.2 | 8.0 | 0.10 | 1.27 | 0.38 | 94 | 1005.7 |
| 20260509075509 | 8 | 150 | 1.6 | 4.8 | 0.10 | 1.24 | 0.36 | 94 | 1005.6 |
| 20260509075041 | 8 | 156 | 1.6 | 4.8 | 0.10 | 1.24 | 0.36 | 94 | 1005.7 |
| 20260509075009 | 8 | 156 | 1.6 | 4.8 | 0.10 | 1.24 | 0.36 | 94 | 1005.7 |
| 20260509074439 | 8 | 158 | 1.6 | 3.2 | 0.08 | 1.22 | 0.33 | 94 | 1005.8 |
| 20260509073909 | 8 | 157 | 1.6 | 3.2 | 0.08 | 1.22 | 0.33 | 94 | 1005.8 |
| 20260509073409 | 8 | 150 | 0.0 | 3.2 | 0.10 | 1.22 | 0.33 | 94 | 1005.8 |
| 20260509072839 | 8 | 150 | 1.6 | 6.4 | 0.08 | 1.19 | 0.30 | 94 | 1005.7 |
| 20260509072339 | 8 | 153 | 1.6 | 6.4 | 0.10 | 1.19 | 0.30 | 94 | 1005.8 |
| 20260509071809 | 8 | 177 | 0.0 | 3.2 | 0.10 | 1.19 | 0.30 | 94 | 1005.8 |
| 20260509071240 | 8 | 159 | 0.0 | 3.2 | 0.08 | 1.17 | 0.28 | 94 | 1005.9 |
| 20260509070709 | 8 | 156 | 0.0 | 3.2 | 0.10 | 1.17 | 0.28 | 94 | 1005.8 |
| 20260509070139 | 8 | 191 | 0.0 | 1.6 | 0.10 | 1.17 | 0.28 | 94 | 1006.0 |
| 20260509065609 | 8 | 207 | 0.0 | 1.6 | 0.08 | 1.14 | 0.25 | 94 | 1006.0 |
| 20260509065109 | 8 | 213 | 0.0 | 1.6 | 0.08 | 1.14 | 0.25 | 94 | 1006.1 |
| 20260509064539 | 8 | 349 | 0.0 | 1.6 | 0.08 | 1.14 | 0.25 | 93 | 1006.0 |
| 20260509064009 | 8 | 350 | 0.0 | 3.2 | 0.08 | 1.14 | 0.25 | 93 | 1006.1 |
| 20260509063439 | 8 | 346 | 0.0 | 3.2 | 0.08 | 1.12 | 0.23 | 93 | 1006.3 |
| 20260509062939 | 8 | 162 | 0.0 | 3.2 | 0.10 | 1.12 | 0.23 | 93 | 1006.3 |
| 20260509062409 | 8 | 169 | 1.6 | 3.2 | 0.08 | 1.09 | 0.20 | 93 | 1006.5 |
| 20260509061839 | 8 | 165 | 0.0 | 4.8 | 0.10 | 1.09 | 0.20 | 93 | 1006.6 |
| 20260509061339 | 8 | 157 | 0.0 | 4.8 | 0.10 | 1.09 | 0.20 | 93 | 1006.6 |
| 20260509060809 | 8 | 151 | 0.0 | 3.2 | 0.10 | 1.09 | 0.20 | 93 | 1006.7 |
| 20260509055739 | 8 | 0 | 0.0 | 0.0 | 0.10 | 1.07 | 0.18 | 93 | 1006.7 |
| 20260509055239 | 8 | 0 | 0.0 | 0.0 | 0.13 | 1.07 | 0.18 | 93 | 1006.7 |
| 20260509054739 | 8 | 273 | 0.0 | 1.6 | 0.15 | 1.07 | 0.18 | 93 | 1006.9 |
| 20260509054209 | 8 | 189 | 0.0 | 1.6 | 0.15 | 1.07 | 0.18 | 93 | 1006.9 |
| 20260509053709 | 8 | 164 | 0.0 | 1.6 | 0.13 | 1.04 | 0.15 | 93 | 1006.9 |
| 20260509053139 | 8 | 82 | 0.0 | 1.6 | 0.13 | 1.04 | 0.15 | 93 | 1007.2 |
| 20260509052639 | 8 | 15 | 0.0 | 1.6 | 0.13 | 1.02 | 0.13 | 93 | 1007.3 |
| 20260509052139 | 8 | 141 | 1.6 | 4.8 | 0.13 | 1.02 | 0.13 | 93 | 1007.3 |
| 20260509051609 | 8 | 154 | 1.6 | 4.8 | 0.10 | 0.99 | 0.10 | 93 | 1007.4 |
| 20260509051109 | 8 | 162 | 1.6 | 6.4 | 0.10 | 0.99 | 0.10 | 93 | 1007.5 |
| 20260509050539 | 8 | 168 | 1.6 | 9.7 | 0.08 | 0.97 | 0.08 | 93 | 1007.6 |
| 20260509050009 | 8 | 166 | 1.6 | 9.7 | 0.08 | 0.97 | 0.08 | 93 | 1007.7 |
| 20260509045512 | 8 | 150 | 1.6 | 6.4 | 0.05 | 0.94 | 0.05 | 93 | 1007.6 |
| 20260509045439 | 8 | 150 | 1.6 | 6.4 | 0.05 | 0.94 | 0.05 | 93 | 1007.6 |
| 20260509044939 | 8 | 155 | 1.6 | 6.4 | 0.08 | 0.94 | 0.05 | 93 | 1007.7 |
| 20260509044409 | 8 | 173 | 3.2 | 11.3 | 0.05 | 0.91 | 0.03 | 93 | 1007.7 |
| 20260509043909 | 8 | 177 | 3.2 | 11.3 | 0.05 | 0.91 | 0.03 | 93 | 1007.7 |
| 20260509043510 | 8 | 157 | 3.2 | 8.0 | 0.08 | 0.91 | 0.03 | 93 | 1007.6 |
| 20260509043339 | 8 | 157 | 3.2 | 8.0 | 0.08 | 0.91 | 0.03 | 93 | 1007.6 |
| 20260509042839 | 8 | 152 | 3.2 | 8.0 | 0.08 | 0.91 | 0.03 | 93 | 1007.7 |
| 20260509042015 | 8 | 160 | 3.2 | 8.0 | 0.08 | 0.89 | 0.00 | 93 | 1008.0 |
| 20260509041809 | 8 | 160 | 3.2 | 8.0 | 0.08 | 0.89 | 0.00 | 93 | 1008.0 |
| 20260509041508 | 8 | 163 | 1.6 | 8.0 | 0.10 | 0.89 | 0.00 | 93 | 1008.0 |
| 20260509041239 | 8 | 163 | 1.6 | 8.0 | 0.10 | 0.89 | 0.00 | 93 | 1008.0 |
| 20260509040507 | 8 | 166 | 1.6 | 6.4 | 0.13 | 0.89 | 0.00 | 93 | 1008.1 |
| 20260509040209 | 8 | 166 | 1.6 | 6.4 | 0.13 | 0.89 | 0.00 | 93 | 1008.1 |
| 20260509035504 | 8 | 146 | 1.6 | 6.4 | 0.15 | 0.86 | 0.86 | 93 | 1008.1 |
| 20260509035139 | 8 | 146 | 1.6 | 6.4 | 0.15 | 0.86 | 0.86 | 93 | 1008.1 |
| 20260509034609 | 8 | 148 | 1.6 | 6.4 | 0.15 | 0.86 | 0.86 | 93 | 1008.0 |
| 20260509034039 | 8 | 153 | 1.6 | 3.2 | 0.18 | 0.86 | 0.86 | 93 | 1008.1 |
| 20260509033509 | 8 | 159 | 0.0 | 4.8 | 0.15 | 0.84 | 0.84 | 93 | 1008.2 |
| 20260509033009 | 8 | 157 | 1.6 | 4.8 | 0.18 | 0.84 | 0.84 | 93 | 1008.3 |
| 20260509032439 | 8 | 146 | 1.6 | 6.4 | 0.18 | 0.81 | 0.81 | 93 | 1008.3 |
| 20260509031909 | 8 | 156 | 1.6 | 6.4 | 0.18 | 0.81 | 0.81 | 92 | 1008.3 |
| 20260509031339 | 8 | 151 | 1.6 | 6.4 | 0.18 | 0.79 | 0.79 | 92 | 1008.3 |
| 20260509030839 | 8 | 157 | 1.6 | 6.4 | 0.18 | 0.79 | 0.79 | 92 | 1008.5 |
| 20260509030014 | 8 | 154 | 1.6 | 4.8 | 0.15 | 0.74 | 0.74 | 92 | 1008.5 |
| 20260509025809 | 8 | 154 | 1.6 | 4.8 | 0.15 | 0.74 | 0.74 | 92 | 1008.5 |
| 20260509025504 | 8 | 157 | 1.6 | 4.8 | 0.15 | 0.74 | 0.74 | 92 | 1008.6 |
| 20260509025239 | 8 | 157 | 1.6 | 4.8 | 0.15 | 0.74 | 0.74 | 92 | 1008.6 |
| 20260509024739 | 8 | 145 | 0.0 | 4.8 | 0.15 | 0.71 | 0.71 | 92 | 1008.6 |
| 20260509024209 | 8 | 136 | 1.6 | 3.2 | 0.13 | 0.69 | 0.69 | 92 | 1008.7 |
| 20260509023709 | 8 | 138 | 1.6 | 4.8 | 0.15 | 0.69 | 0.69 | 92 | 1008.7 |
| 20260509023139 | 8 | 147 | 1.6 | 4.8 | 0.15 | 0.66 | 0.66 | 92 | 1008.8 |
| 20260509022609 | 8 | 161 | 1.6 | 4.8 | 0.15 | 0.66 | 0.66 | 92 | 1009.0 |
| 20260509022109 | 8 | 161 | 1.6 | 3.2 | 0.15 | 0.64 | 0.64 | 92 | 1008.9 |
| 20260509021539 | 8 | 166 | 0.0 | 3.2 | 0.13 | 0.61 | 0.61 | 92 | 1008.9 |
| 20260509021039 | 8 | 141 | 0.0 | 4.8 | 0.13 | 0.61 | 0.61 | 92 | 1008.8 |
| 20260509020539 | 8 | 148 | 0.0 | 4.8 | 0.13 | 0.58 | 0.58 | 92 | 1008.7 |
| 20260509020039 | 8 | 190 | 0.0 | 1.6 | 0.13 | 0.58 | 0.58 | 92 | 1008.7 |
| 20260509015539 | 8 | 0 | 0.0 | 0.0 | 0.13 | 0.58 | 0.58 | 92 | 1008.6 |
| 20260509015009 | 8 | 139 | 0.0 | 1.6 | 0.13 | 0.56 | 0.56 | 92 | 1008.4 |
| 20260509014439 | 8 | 139 | 0.0 | 1.6 | 0.13 | 0.56 | 0.56 | 91 | 1008.5 |
| 20260509013909 | 8 | 0 | 0.0 | 0.0 | 0.13 | 0.56 | 0.56 | 91 | 1008.5 |
| 20260509013503 | 8 | 0 | 0.0 | 0.0 | 0.13 | 0.53 | 0.53 | 91 | 1008.4 |
| 20260509013409 | 8 | 0 | 0.0 | 0.0 | 0.13 | 0.53 | 0.53 | 91 | 1008.4 |
| 20260509012839 | 8 | 140 | 0.0 | 1.6 | 0.13 | 0.51 | 0.51 | 91 | 1008.4 |
| 20260509012309 | 8 | 140 | 0.0 | 1.6 | 0.10 | 0.48 | 0.48 | 91 | 1008.3 |
| 20260509012013 | 8 | 139 | 0.0 | 1.6 | 0.13 | 0.48 | 0.48 | 91 | 1008.2 |
| 20260509011739 | 8 | 139 | 0.0 | 1.6 | 0.13 | 0.48 | 0.48 | 91 | 1008.2 |
| 20260509011209 | 8 | 0 | 0.0 | 0.0 | 0.15 | 0.48 | 0.48 | 91 | 1008.2 |
| 20260509010709 | 8 | 0 | 0.0 | 0.0 | 0.15 | 0.46 | 0.46 | 90 | 1008.0 |
| 20260509010505 | 8 | 0 | 0.0 | 0.0 | 0.18 | 0.46 | 0.46 | 90 | 1008.0 |
| 20260509010139 | 8 | 0 | 0.0 | 0.0 | 0.18 | 0.46 | 0.46 | 90 | 1008.0 |
| 20260509005609 | 8 | 0 | 0.0 | 0.0 | 0.20 | 0.46 | 0.46 | 90 | 1008.0 |
| 20260509005109 | 8 | 0 | 0.0 | 0.0 | 0.23 | 0.46 | 0.46 | 90 | 1008.0 |
| 20260509004540 | 8 | 0 | 0.0 | 0.0 | 0.23 | 0.43 | 0.43 | 89 | 1008.0 |
| 20260509004039 | 8 | 127 | 0.0 | 1.6 | 0.25 | 0.43 | 0.43 | 89 | 1007.9 |
| 20260509003539 | 8 | 127 | 0.0 | 1.6 | 0.23 | 0.41 | 0.41 | 88 | 1007.8 |
| 20260509003009 | 8 | 123 | 0.0 | 1.6 | 0.25 | 0.41 | 0.41 | 88 | 1007.9 |
| 20260509002439 | 8 | 149 | 1.6 | 4.8 | 0.23 | 0.38 | 0.38 | 87 | 1008.0 |
| 20260509001939 | 8 | 156 | 1.6 | 4.8 | 0.20 | 0.36 | 0.36 | 87 | 1008.2 |
| 20260509001409 | 9 | 148 | 0.0 | 4.8 | 0.18 | 0.33 | 0.33 | 87 | 1008.2 |
| 20260509000429 | 9 | 105 | 0.0 | 1.6 | 0.13 | 0.28 | 0.28 | 84 | 1008.1 |
| 20260509000340 | 9 | 105 | 0.0 | 1.6 | 0.13 | 0.28 | 0.28 | 84 | 1008.1 |
| 20260508235839 | 10 | 103 | 0.0 | 4.8 | 0.13 | 0.28 | 0.28 | 83 | 1008.0 |
| 20260508235339 | 10 | 109 | 0.0 | 4.8 | 0.10 | 0.25 | 0.25 | 82 | 1007.8 |
| 20260508234809 | 10 | 136 | 0.0 | 4.8 | 0.08 | 0.23 | 0.23 | 81 | 1007.9 |
| 20260508234238 | 10 | 154 | 1.6 | 4.8 | 0.05 | 0.20 | 0.20 | 79 | 1007.7 |
| 20260508233739 | 11 | 152 | 1.6 | 8.0 | 0.03 | 0.18 | 0.18 | 78 | 1007.6 |
| 20260508233209 | 11 | 150 | 3.2 | 8.0 | 0.00 | 0.15 | 0.15 | 76 | 1007.6 |
| 20260508232640 | 11 | 154 | 3.2 | 8.0 | 0.00 | 0.15 | 0.15 | 76 | 1007.6 |
| 20260508231639 | 11 | 161 | 1.6 | 6.4 | 0.00 | 0.15 | 0.15 | 75 | 1007.5 |
| 20260508231109 | 11 | 180 | 1.6 | 12.9 | 0.00 | 0.15 | 0.15 | 75 | 1007.4 |
| 20260508230609 | 11 | 178 | 4.8 | 17.7 | 0.00 | 0.15 | 0.15 | 75 | 1007.3 |
| 20260508230039 | 11 | 181 | 4.8 | 12.9 | 0.00 | 0.15 | 0.15 | 75 | 1007.4 |
| 20260508225539 | 11 | 177 | 6.4 | 12.9 | 0.00 | 0.15 | 0.15 | 75 | 1007.5 |
| 20260508225039 | 11 | 162 | 6.4 | 12.9 | 0.00 | 0.15 | 0.15 | 75 | 1007.5 |
| 20260508224509 | 11 | 150 | 3.2 | 11.3 | 0.00 | 0.15 | 0.15 | 75 | 1007.4 |
| 20260508223939 | 11 | 148 | 3.2 | 12.9 | 0.00 | 0.15 | 0.15 | 75 | 1007.5 |
| 20260508223408 | 11 | 154 | 4.8 | 12.9 | 0.00 | 0.15 | 0.15 | 75 | 1007.4 |
| 20260508222339 | 11 | 170 | 6.4 | 17.7 | 0.00 | 0.15 | 0.15 | 75 | 1007.4 |
| 20260508221838 | 11 | 168 | 6.4 | 19.3 | 0.00 | 0.15 | 0.15 | 75 | 1007.4 |
| 20260508221309 | 11 | 167 | 4.8 | 19.3 | 0.00 | 0.15 | 0.15 | 76 | 1007.2 |
| 20260508221035 | 11 | 168 | 3.2 | 12.9 | 0.00 | 0.15 | 0.15 | 77 | 1007.4 |
| 20260508220739 | 11 | 168 | 3.2 | 12.9 | 0.00 | 0.15 | 0.15 | 77 | 1007.4 |
| 20260508220238 | 11 | 178 | 3.2 | 16.1 | 0.00 | 0.15 | 0.15 | 78 | 1007.4 |
| 20260508215739 | 11 | 174 | 6.4 | 20.9 | 0.00 | 0.15 | 0.15 | 78 | 1007.4 |
| 20260508215209 | 11 | 167 | 8.0 | 20.9 | 0.03 | 0.15 | 0.15 | 77 | 1007.3 |
| 20260508214744 | 11 | 165 | 6.4 | 16.1 | 0.03 | 0.15 | 0.15 | 78 | 1007.3 |
| 20260508214709 | 11 | 165 | 6.4 | 16.1 | 0.03 | 0.15 | 0.15 | 78 | 1007.3 |
| 20260508214209 | 11 | 159 | 4.8 | 12.9 | 0.03 | 0.15 | 0.15 | 80 | 1007.4 |
| 20260508213709 | 11 | 161 | 4.8 | 17.7 | 0.03 | 0.15 | 0.15 | 79 | 1007.2 |
| 20260508213139 | 11 | 166 | 4.8 | 17.7 | 0.03 | 0.15 | 0.15 | 80 | 1007.3 |